Regional Weather Roundup
Issued by NWS

Home | Current Version | Previous Version | Graphics & Text | Print | Product List | Glossary On
Versions: 1 2 3 4 5 6 7 8 9 10 11 12 13 14 15 16 17 18 19 20 21 22 23 24 25 26 27
000
ASUS45 KSLC 230810
RWRUT

UTAH REGIONAL WEATHER ROUNDUP
NATIONAL WEATHER SERVICE SALT LAKE CITY UT
200 AM MDT WED MAY 23 2018

UTZ001>011-023>025-230900-

NORTHERN UTAH

CITY           SKY/WX    TMP DP  RH WIND       PRES   REMARKS
BRIGHAM CITY   CLOUDY    58  44  59 W3        29.94F
HILL AFB       MOCLDY    54  41  62 E12       29.94F
LOGAN          CLOUDY    53  50  89 S10       29.95F
OGDEN          CLOUDY    55  42  61 S8        29.93F
SALT LAKE CITY MOCLDY    57  48  72 SE8       29.92F
TOOELE VALLEY  PTCLDY    50  45  81 S14       29.93F
WENDOVER       CLEAR     54  45  71 NE7       29.92S
HEBER CITY       N/A     41  39  93 CALM      30.00S
WEST JORDAN    PTCLDY    51  47  86 S8        29.96S

$$

UTZ011>015-024>027-230900-

CENTRAL/NORTHEAST UTAH

CITY           SKY/WX    TMP DP  RH WIND       PRES   REMARKS
PROVO AIRPORT  CLEAR     51  45  79 E5        29.97S
MOAB/CANYONLAN CLEAR     53  43  68 W6        29.92R
DELTA          PTCLDY    45  43  93 CALM      29.96R
PRICE          CLEAR     52  35  52 W3        29.99F
ROOSEVELT      PTCLDY    45  39  81 W8        30.02S
VERNAL         PTCLDY    48  40  73 CALM      30.00S

$$

UTZ013>016-019>022-027-230900-

SOUTHERN UTAH

CITY           SKY/WX    TMP DP  RH WIND       PRES   REMARKS
BRYCE CANYON   CLOUDY    40  39  97 NW5       30.09F
CEDAR CITY     PTCLDY    50  36  58 SE5       29.99R
MILFORD        PTCLDY    47  44  90 W10       29.96F
ST GEORGE      MOSUNNY   65  41  41 E13       29.87S
HANKSVILLE     PTCLDY    54  28  37 CALM      29.95S
BLANDING         N/A     51  22  31 CALM      30.06R

$$

REGIONAL REPORTS     COLORADO/ARIZONA

CITY           SKY/WX    TMP DP  RH WIND       PRES   REMARKS
CRAIG, CO      CLEAR     45  41  86 CALM      30.04F
GRAND JUNCTION CLEAR     50  43  77 SE10      29.95S
RIFLE, CO      CLEAR     44  39  82 E6        30.02S
MONTROSE, CO   CLEAR     48  38  68 S12       30.02S
CORTEZ, CO     CLEAR     47  29  49 CALM      30.00R
COLORADO CITY    N/A     45  41  87 CALM      30.00S
PAGE, AZ       CLEAR     62  33  33 S3        29.94S
GRAND CANYON   CLEAR     33  23  66 CALM      30.08S
KINGMAN, AZ    CLEAR     61  29  29 S12       29.90S
FLAGSTAFF, AZ  CLEAR     38  17  42 W3        30.10S

$$

REGIONAL REPORTS    NEVADA/IDAHO/WYOMING

CITY           SKY/WX    TMP DP  RH WIND       PRES   REMARKS
LAS VEGAS, NV  PTCLDY    75  36  24 S5        29.79S
ELY, NY        CLOUDY    46  41  82 SE6       30.01S
ELKO, NV       MOCLDY    46  43  89 CALM      29.95R
POCATELLO, ID  LGT RAIN  55  51  86 CALM      29.93S
BURLEY, ID     MOCLDY    53  48  83 CALM      29.89F
FORT BRIDGER,  CLOUDY    46  43  90 NW3       30.08S
EVANSTON, WY   CLOUDY    45  40  82 CALM      30.04F
ROCK SPRINGS,  PTCLDY    44  41  89 SW10      30.06S
KEMMERER, WY   CLOUDY    43  37  81 CALM      30.08F

$$




USA.gov is the U.S. government's official web portal to all federal, state and local government web resources and services.